Year,Month,Day,Hour,Minute,Value (Times are PST for windgust in km/hr)
2015,12,06,00,00,1.60
2015,12,06,00,01,1.60
2015,12,06,00,02,1.60
2015,12,06,00,03,3.20
2015,12,06,00,04,3.20
2015,12,06,00,05,4.80
2015,12,06,00,06,4.80
2015,12,06,00,07,4.80
2015,12,06,00,08,4.80
2015,12,06,00,09,4.80
2015,12,06,00,10,4.80
2015,12,06,00,11,4.80
2015,12,06,00,12,3.20
2015,12,06,00,13,4.80
2015,12,06,00,14,4.80
2015,12,06,00,15,3.20
2015,12,06,00,16,1.60
2015,12,06,00,19,1.60
2015,12,06,00,20,1.60
2015,12,06,00,21,1.60
2015,12,06,00,22,1.60
2015,12,06,00,23,3.20
2015,12,06,00,24,3.20
2015,12,06,00,25,4.80
2015,12,06,00,26,4.80
2015,12,06,00,27,4.80
2015,12,06,00,28,4.80
2015,12,06,00,29,3.20
2015,12,06,00,30,1.60
2015,12,06,00,31,3.20
2015,12,06,00,32,3.20
2015,12,06,00,33,4.80
2015,12,06,00,34,3.20
2015,12,06,00,35,3.20
2015,12,06,00,36,3.20
2015,12,06,00,37,3.20
2015,12,06,00,38,1.60
2015,12,06,00,39,3.20
2015,12,06,00,40,1.60
2015,12,06,00,43,1.60
2015,12,06,00,45,1.60
2015,12,06,00,46,3.20
2015,12,06,00,47,3.20
2015,12,06,00,48,3.20
2015,12,06,00,49,1.60
2015,12,06,00,50,3.20
2015,12,06,00,51,3.20
2015,12,06,00,52,3.20
2015,12,06,00,53,3.20
2015,12,06,00,54,1.60
2015,12,06,00,55,3.20
2015,12,06,00,56,3.20
2015,12,06,00,57,3.20
2015,12,06,00,58,3.20
2015,12,06,00,59,4.80
2015,12,06,01,00,4.80
2015,12,06,01,01,3.20
2015,12,06,01,02,4.80
2015,12,06,01,03,4.80
2015,12,06,01,04,8.10
2015,12,06,01,05,8.10
2015,12,06,01,06,8.10
2015,12,06,01,07,8.10
2015,12,06,01,08,6.40
2015,12,06,01,09,6.40
2015,12,06,01,10,6.40
2015,12,06,01,11,4.80
2015,12,06,01,12,6.40
2015,12,06,01,13,6.40
2015,12,06,01,14,4.80
2015,12,06,01,15,3.20
2015,12,06,01,16,1.60
2015,12,06,01,17,1.60
2015,12,06,01,18,1.60
2015,12,06,01,19,1.60
2015,12,06,01,20,1.60
2015,12,06,01,23,1.60
2015,12,06,01,24,1.60
2015,12,06,01,25,4.80
2015,12,06,01,26,3.20
2015,12,06,01,27,3.20
2015,12,06,01,28,4.80
2015,12,06,01,29,6.40
2015,12,06,01,30,6.40
2015,12,06,01,31,6.40
2015,12,06,01,32,6.40
2015,12,06,01,33,4.80
2015,12,06,01,34,3.20
2015,12,06,01,35,4.80
2015,12,06,01,36,3.20
2015,12,06,01,37,3.20
2015,12,06,01,38,1.60
2015,12,06,01,39,3.20
2015,12,06,01,40,3.20
2015,12,06,01,41,1.60
2015,12,06,01,42,1.60
2015,12,06,01,43,3.20
2015,12,06,01,44,4.80
2015,12,06,01,45,8.10
2015,12,06,01,46,8.10
2015,12,06,01,47,6.40
2015,12,06,01,48,4.80
2015,12,06,01,49,6.40
2015,12,06,01,50,6.40
2015,12,06,01,51,3.20
2015,12,06,01,52,1.60
2015,12,06,01,57,1.60
2015,12,06,01,58,4.80
2015,12,06,01,59,3.20
2015,12,06,02,00,3.20
2015,12,06,02,01,1.60
2015,12,06,02,03,1.60
2015,12,06,02,04,4.80
2015,12,06,02,05,11.30
2015,12,06,02,06,1.60
2015,12,06,02,07,4.80
2015,12,06,02,08,8.10
2015,12,06,02,09,9.60
2015,12,06,02,10,9.60
2015,12,06,02,11,8.10
2015,12,06,02,12,3.20
2015,12,06,02,13,3.20
2015,12,06,02,14,3.20
2015,12,06,02,15,3.20
2015,12,06,02,16,1.60
2015,12,06,02,20,3.20
2015,12,06,02,21,6.40
2015,12,06,02,22,4.80
2015,12,06,02,23,3.20
2015,12,06,02,24,3.20
2015,12,06,02,25,3.20
2015,12,06,02,26,4.80
2015,12,06,02,27,4.80
2015,12,06,02,28,3.20
2015,12,06,02,29,3.20
2015,12,06,02,30,3.20
2015,12,06,02,31,3.20
2015,12,06,02,32,3.20
2015,12,06,02,33,4.80
2015,12,06,02,34,4.80
2015,12,06,02,35,6.40
2015,12,06,02,36,4.80
2015,12,06,02,37,3.20
2015,12,06,02,38,1.60
2015,12,06,02,45,1.60
2015,12,06,02,46,3.20
2015,12,06,02,47,3.20
2015,12,06,02,48,4.80
2015,12,06,02,49,4.80
2015,12,06,02,50,4.80
2015,12,06,02,51,4.80
2015,12,06,02,52,6.40
2015,12,06,02,53,3.20
2015,12,06,02,54,1.60
2015,12,06,02,55,1.60
2015,12,06,02,56,1.60
2015,12,06,02,57,3.20
2015,12,06,02,58,3.20
2015,12,06,02,59,3.20
2015,12,06,03,00,3.20
2015,12,06,03,01,4.80
2015,12,06,03,02,4.80
2015,12,06,03,03,4.80
2015,12,06,03,04,6.40
2015,12,06,03,05,8.10
2015,12,06,03,06,6.40
2015,12,06,03,07,6.40
2015,12,06,03,08,6.40
2015,12,06,03,09,6.40
2015,12,06,03,10,4.80
2015,12,06,03,11,1.60
2015,12,06,03,12,1.60
2015,12,06,03,13,1.60
2015,12,06,03,14,1.60
2015,12,06,03,15,1.60
2015,12,06,03,16,4.80
2015,12,06,03,17,4.80
2015,12,06,03,18,6.40
2015,12,06,03,19,6.40
2015,12,06,03,20,3.20
2015,12,06,03,21,1.60
2015,12,06,03,22,4.80
2015,12,06,03,23,3.20
2015,12,06,03,24,4.80
2015,12,06,03,25,4.80
2015,12,06,03,26,3.20
2015,12,06,03,27,4.80
2015,12,06,03,28,1.60
2015,12,06,03,30,1.60
2015,12,06,03,32,1.60
2015,12,06,03,33,1.60
2015,12,06,03,35,1.60
2015,12,06,03,36,1.60
2015,12,06,03,39,1.60
2015,12,06,03,40,1.60
2015,12,06,03,52,3.20
2015,12,06,03,53,4.80
2015,12,06,03,54,6.40
2015,12,06,03,55,6.40
2015,12,06,03,56,4.80
2015,12,06,03,57,4.80
2015,12,06,03,58,6.40
2015,12,06,03,59,6.40
2015,12,06,04,00,1.60
2015,12,06,04,01,4.80
2015,12,06,04,02,4.80
2015,12,06,04,03,3.20
2015,12,06,04,04,3.20
2015,12,06,04,05,3.20
2015,12,06,04,06,4.80
2015,12,06,04,07,3.20
2015,12,06,04,10,1.60
2015,12,06,04,12,1.60
2015,12,06,04,13,3.20
2015,12,06,04,14,3.20
2015,12,06,04,15,3.20
2015,12,06,04,16,1.60
2015,12,06,04,17,1.60
2015,12,06,04,18,3.20
2015,12,06,04,19,3.20
2015,12,06,04,31,1.60
2015,12,06,04,32,1.60
2015,12,06,04,33,1.60
2015,12,06,04,34,1.60
2015,12,06,04,35,1.60
2015,12,06,04,36,3.20
2015,12,06,04,37,3.20
2015,12,06,04,38,3.20
2015,12,06,04,45,1.60
2015,12,06,04,46,1.60
2015,12,06,04,48,1.60
2015,12,06,05,00,1.60
2015,12,06,05,01,1.60
2015,12,06,05,02,3.20
2015,12,06,05,03,4.80
2015,12,06,05,04,4.80
2015,12,06,05,05,3.20
2015,12,06,05,06,1.60
2015,12,06,05,07,3.20
2015,12,06,05,08,3.20
2015,12,06,05,09,4.80
2015,12,06,05,10,3.20
2015,12,06,05,11,1.60
2015,12,06,05,12,6.40
2015,12,06,05,13,4.80
2015,12,06,05,14,3.20
2015,12,06,05,15,1.60
2015,12,06,05,16,1.60
2015,12,06,05,17,4.80
2015,12,06,05,18,3.20
2015,12,06,05,19,4.80
2015,12,06,05,20,4.80
2015,12,06,05,21,3.20
2015,12,06,05,22,3.20
2015,12,06,05,23,1.60
2015,12,06,05,24,1.60
2015,12,06,05,25,1.60
2015,12,06,05,26,1.60
2015,12,06,05,29,1.60
2015,12,06,05,32,3.20
2015,12,06,05,33,3.20
2015,12,06,05,34,1.60
2015,12,06,05,35,3.20
2015,12,06,05,36,3.20
2015,12,06,05,37,3.20
2015,12,06,05,38,3.20
2015,12,06,05,39,3.20
2015,12,06,05,40,4.80
2015,12,06,05,41,4.80
2015,12,06,05,42,1.60
2015,12,06,05,43,6.40
2015,12,06,05,44,4.80
2015,12,06,05,45,4.80
2015,12,06,05,46,3.20
2015,12,06,05,47,3.20
2015,12,06,05,48,1.60
2015,12,06,05,49,3.20
2015,12,06,05,50,3.20
2015,12,06,05,51,3.20
2015,12,06,05,52,1.60
2015,12,06,05,53,1.60
2015,12,06,05,54,3.20
2015,12,06,05,55,3.20
2015,12,06,05,56,4.80
2015,12,06,05,57,1.60
2015,12,06,05,58,4.80
2015,12,06,05,59,3.20
2015,12,06,06,00,6.40
2015,12,06,06,01,4.80
2015,12,06,06,02,3.20
2015,12,06,06,03,3.20
2015,12,06,06,04,6.40
2015,12,06,06,05,6.40
2015,12,06,06,06,3.20
2015,12,06,06,07,1.60
2015,12,06,06,15,3.20
2015,12,06,06,16,1.60
2015,12,06,06,17,1.60
2015,12,06,06,18,3.20
2015,12,06,06,19,3.20
2015,12,06,06,20,1.60
2015,12,06,06,21,1.60
2015,12,06,06,22,3.20
2015,12,06,06,23,3.20
2015,12,06,06,24,1.60
2015,12,06,06,25,1.60
2015,12,06,06,26,1.60
2015,12,06,06,27,3.20
2015,12,06,06,28,3.20
2015,12,06,06,29,4.80
2015,12,06,06,30,4.80
2015,12,06,06,31,1.60
2015,12,06,06,32,1.60
2015,12,06,06,34,1.60
2015,12,06,06,35,3.20
2015,12,06,06,36,3.20
2015,12,06,06,37,3.20
2015,12,06,06,40,1.60
2015,12,06,06,41,3.20
2015,12,06,06,42,3.20
2015,12,06,06,46,1.60
2015,12,06,06,47,1.60
2015,12,06,06,48,1.60
2015,12,06,06,49,1.60
2015,12,06,06,50,3.20
2015,12,06,06,51,3.20
2015,12,06,06,52,3.20
2015,12,06,06,53,1.60
2015,12,06,06,54,3.20
2015,12,06,06,55,1.60
2015,12,06,06,56,1.60
2015,12,06,06,58,1.60
2015,12,06,06,59,1.60
2015,12,06,07,02,1.60
2015,12,06,07,03,3.20
2015,12,06,07,04,3.20
2015,12,06,07,05,1.60
2015,12,06,07,06,3.20
2015,12,06,07,07,3.20
2015,12,06,07,08,3.20
2015,12,06,07,09,1.60
2015,12,06,07,10,3.20
2015,12,06,07,11,3.20
2015,12,06,07,12,4.80
2015,12,06,07,13,3.20
2015,12,06,07,14,6.40
2015,12,06,07,15,4.80
2015,12,06,07,16,3.20
2015,12,06,07,17,3.20
2015,12,06,07,18,3.20
2015,12,06,07,19,3.20
2015,12,06,07,20,3.20
2015,12,06,07,21,9.60
2015,12,06,07,22,8.10
2015,12,06,07,23,8.10
2015,12,06,07,24,4.80
2015,12,06,07,25,4.80
2015,12,06,07,26,8.10
2015,12,06,07,27,11.30
2015,12,06,07,28,17.70
2015,12,06,07,29,16.10
2015,12,06,07,30,16.10
2015,12,06,07,31,16.10
2015,12,06,07,32,20.90
2015,12,06,07,33,20.90
2015,12,06,07,34,20.90
2015,12,06,07,35,25.70
2015,12,06,07,36,22.50
2015,12,06,07,37,25.70
2015,12,06,07,38,24.20
2015,12,06,07,39,24.20
2015,12,06,07,40,20.90
2015,12,06,07,41,22.50
2015,12,06,07,42,20.90
2015,12,06,07,43,14.50
2015,12,06,07,44,11.30
2015,12,06,07,45,12.90
2015,12,06,07,46,8.10
2015,12,06,07,47,8.10
2015,12,06,07,48,9.60
2015,12,06,07,49,12.90
2015,12,06,07,50,12.90
2015,12,06,07,51,17.70
2015,12,06,07,52,20.90
2015,12,06,07,53,20.90
2015,12,06,07,54,19.30
2015,12,06,07,55,27.40
2015,12,06,07,56,19.30
2015,12,06,07,57,16.10
2015,12,06,07,58,11.30
2015,12,06,07,59,8.10
2015,12,06,08,00,6.40
2015,12,06,08,01,4.80
2015,12,06,08,02,3.20
2015,12,06,08,03,4.80
2015,12,06,08,04,3.20
2015,12,06,08,05,3.20
2015,12,06,08,06,3.20
2015,12,06,08,07,4.80
2015,12,06,08,08,3.20
2015,12,06,08,09,4.80
2015,12,06,08,10,3.20
2015,12,06,08,11,3.20
2015,12,06,08,12,4.80
2015,12,06,08,13,6.40
2015,12,06,08,14,6.40
2015,12,06,08,15,6.40
2015,12,06,08,16,6.40
2015,12,06,08,17,11.30
2015,12,06,08,18,11.30
2015,12,06,08,19,8.10
2015,12,06,08,20,3.20
2015,12,06,08,21,9.60
2015,12,06,08,22,9.60
2015,12,06,08,23,4.80
2015,12,06,08,24,6.40
2015,12,06,08,25,4.80
2015,12,06,08,26,4.80
2015,12,06,08,27,6.40
2015,12,06,08,28,4.80
2015,12,06,08,29,8.10
2015,12,06,08,30,8.10
2015,12,06,08,31,8.10
2015,12,06,08,32,3.20
2015,12,06,08,33,4.80
2015,12,06,08,34,8.10
2015,12,06,08,35,6.40
2015,12,06,08,36,12.90
2015,12,06,08,37,16.10
2015,12,06,08,38,14.50
2015,12,06,08,39,14.50
2015,12,06,08,40,12.90
2015,12,06,08,41,11.30
2015,12,06,08,42,19.30
2015,12,06,08,43,17.70
2015,12,06,08,44,12.90
2015,12,06,08,45,11.30
2015,12,06,08,46,19.30
2015,12,06,08,47,12.90
2015,12,06,08,48,12.90
2015,12,06,08,49,9.60
2015,12,06,08,50,11.30
2015,12,06,08,51,11.30
2015,12,06,08,52,9.60
2015,12,06,08,53,11.30
2015,12,06,08,54,14.50
2015,12,06,08,55,12.90
2015,12,06,08,56,11.30
2015,12,06,08,57,12.90
2015,12,06,08,58,9.60
2015,12,06,08,59,8.10
2015,12,06,09,00,6.40
2015,12,06,09,01,6.40
2015,12,06,09,02,8.10
2015,12,06,09,03,12.90
2015,12,06,09,04,14.50
2015,12,06,09,05,11.30
2015,12,06,09,06,14.50
2015,12,06,09,07,22.50
2015,12,06,09,08,20.90
2015,12,06,09,09,16.10
2015,12,06,09,10,17.70
2015,12,06,09,11,22.50
2015,12,06,09,12,19.30
2015,12,06,09,13,24.20
2015,12,06,09,14,19.30
2015,12,06,09,15,20.90
2015,12,06,09,16,19.30
2015,12,06,09,17,22.50
2015,12,06,09,18,20.90
2015,12,06,09,19,27.40
2015,12,06,09,20,20.90
2015,12,06,09,21,17.70
2015,12,06,09,22,19.30
2015,12,06,09,23,17.70
2015,12,06,09,24,25.70
2015,12,06,09,25,20.90
2015,12,06,09,26,25.70
2015,12,06,09,27,33.80
2015,12,06,09,28,33.80
2015,12,06,09,29,22.50
2015,12,06,09,30,24.20
2015,12,06,09,31,35.40
2015,12,06,09,32,33.80
2015,12,06,09,33,38.60
2015,12,06,09,34,32.20
2015,12,06,09,35,29.00
2015,12,06,09,36,32.20
2015,12,06,09,37,27.40
2015,12,06,09,38,25.70
2015,12,06,09,39,29.00
2015,12,06,09,40,27.40
2015,12,06,09,41,32.20
2015,12,06,09,42,37.00
2015,12,06,09,43,24.20
2015,12,06,09,44,24.20
2015,12,06,09,45,25.70
2015,12,06,09,46,25.70
2015,12,06,09,47,24.20
2015,12,06,09,48,22.50
2015,12,06,09,49,22.50
2015,12,06,09,50,20.90
2015,12,06,09,51,22.50
2015,12,06,09,52,24.20
2015,12,06,09,53,17.70
2015,12,06,09,54,24.20
2015,12,06,09,55,16.10
2015,12,06,09,56,24.20
2015,12,06,09,57,25.70
2015,12,06,09,58,14.50
2015,12,06,09,59,16.10
2015,12,06,10,00,20.90
2015,12,06,10,01,27.40
2015,12,06,10,02,16.10
2015,12,06,10,03,20.90
2015,12,06,10,04,16.10
2015,12,06,10,05,22.50
2015,12,06,10,06,22.50
2015,12,06,10,07,25.70
2015,12,06,10,08,22.50
2015,12,06,10,09,27.40
2015,12,06,10,10,22.50
2015,12,06,10,11,25.70
2015,12,06,10,12,24.20
2015,12,06,10,13,19.30
2015,12,06,10,14,24.20
2015,12,06,10,15,29.00
2015,12,06,10,16,25.70
2015,12,06,10,17,22.50
2015,12,06,10,18,25.70
2015,12,06,10,19,35.40
2015,12,06,10,20,37.00
2015,12,06,10,21,20.90
2015,12,06,10,22,19.30
2015,12,06,10,23,22.50
2015,12,06,10,24,41.80
2015,12,06,10,25,30.60
2015,12,06,10,26,33.80
2015,12,06,10,27,22.50
2015,12,06,10,28,16.10
2015,12,06,10,29,19.30
2015,12,06,10,30,19.30
2015,12,06,10,31,19.30
2015,12,06,10,32,22.50
2015,12,06,10,33,33.80
2015,12,06,10,34,29.00
2015,12,06,10,35,27.40
2015,12,06,10,36,29.00
2015,12,06,10,37,29.00
2015,12,06,10,38,20.90
2015,12,06,10,39,27.40
2015,12,06,10,40,25.70
2015,12,06,10,41,24.20
2015,12,06,10,42,27.40
2015,12,06,10,43,37.00
2015,12,06,10,44,40.20
2015,12,06,10,45,48.30
2015,12,06,10,46,30.60
2015,12,06,10,47,20.90
2015,12,06,10,48,30.60
2015,12,06,10,49,25.70
2015,12,06,10,50,22.50
2015,12,06,10,51,32.20
2015,12,06,10,52,20.90
2015,12,06,10,53,19.30
2015,12,06,10,54,19.30
2015,12,06,10,55,17.70
2015,12,06,10,56,17.70
2015,12,06,10,57,24.20
2015,12,06,10,58,29.00
2015,12,06,10,59,32.20
2015,12,06,11,00,25.70
2015,12,06,11,01,25.70
2015,12,06,11,02,27.40
2015,12,06,11,03,24.20
2015,12,06,11,04,19.30
2015,12,06,11,05,27.40
2015,12,06,11,06,25.70
2015,12,06,11,07,25.70
2015,12,06,11,08,24.20
2015,12,06,11,09,22.50
2015,12,06,11,10,27.40
2015,12,06,11,11,24.20
2015,12,06,11,12,30.60
2015,12,06,11,13,24.20
2015,12,06,11,14,25.70
2015,12,06,11,15,24.20
2015,12,06,11,16,17.70
2015,12,06,11,17,24.20
2015,12,06,11,18,25.70
2015,12,06,11,19,29.00
2015,12,06,11,20,32.20
2015,12,06,11,21,25.70
2015,12,06,11,22,24.20
2015,12,06,11,23,29.00
2015,12,06,11,24,32.20
2015,12,06,11,25,25.70
2015,12,06,11,26,29.00
2015,12,06,11,27,38.60
2015,12,06,11,28,29.00
2015,12,06,11,29,24.20
2015,12,06,11,30,33.80
2015,12,06,11,31,25.70
2015,12,06,11,32,24.20
2015,12,06,11,33,27.40
2015,12,06,11,34,30.60
2015,12,06,11,35,24.20
2015,12,06,11,36,30.60
2015,12,06,11,37,30.60
2015,12,06,11,38,25.70
2015,12,06,11,39,40.20
2015,12,06,11,40,27.40
2015,12,06,11,41,43.50
2015,12,06,11,42,32.20
2015,12,06,11,43,27.40
2015,12,06,11,44,20.90
2015,12,06,11,45,29.00
2015,12,06,11,46,41.80
2015,12,06,11,47,35.40
2015,12,06,11,48,33.80
2015,12,06,11,49,43.50
2015,12,06,11,50,54.70
2015,12,06,11,51,37.00
2015,12,06,11,52,30.60
2015,12,06,11,53,30.60
2015,12,06,11,54,37.00
2015,12,06,11,55,38.60
2015,12,06,11,56,48.30
2015,12,06,11,57,40.20
2015,12,06,11,58,37.00
2015,12,06,11,59,33.80
2015,12,06,12,00,48.30
2015,12,06,12,01,45.10
2015,12,06,12,02,46.70
2015,12,06,12,03,35.40
2015,12,06,12,04,32.20
2015,12,06,12,05,37.00
2015,12,06,12,06,29.00
2015,12,06,12,07,25.70
2015,12,06,12,08,38.60
2015,12,06,12,09,41.80
2015,12,06,12,10,40.20
2015,12,06,12,11,45.10
2015,12,06,12,12,49.90
2015,12,06,12,13,48.30
2015,12,06,12,14,70.80
2015,12,06,12,15,54.70
2015,12,06,12,16,41.80
2015,12,06,12,17,45.10
2015,12,06,12,18,40.20
2015,12,06,12,19,37.00
2015,12,06,12,20,45.10
2015,12,06,12,21,32.20
2015,12,06,12,22,29.00
2015,12,06,12,23,30.60
2015,12,06,12,24,40.20
2015,12,06,12,25,64.40
2015,12,06,12,26,30.60
2015,12,06,12,27,41.80
2015,12,06,12,28,46.70
2015,12,06,12,29,48.30
2015,12,06,12,30,25.70
2015,12,06,12,31,25.70
2015,12,06,12,32,25.70
2015,12,06,12,33,29.00
2015,12,06,12,34,25.70
2015,12,06,12,35,24.20
2015,12,06,12,36,27.40
2015,12,06,12,37,35.40
2015,12,06,12,38,24.20
2015,12,06,12,39,37.00
2015,12,06,12,40,37.00
2015,12,06,12,41,25.70
2015,12,06,12,42,30.60
2015,12,06,12,43,30.60
2015,12,06,12,44,29.00
2015,12,06,12,45,22.50
2015,12,06,12,46,30.60
2015,12,06,12,47,30.60
2015,12,06,12,48,29.00
2015,12,06,12,49,22.50
2015,12,06,12,50,29.00
2015,12,06,12,51,25.70
2015,12,06,12,52,20.90
2015,12,06,12,53,25.70
2015,12,06,12,54,20.90
2015,12,06,12,55,32.20
2015,12,06,12,56,30.60
2015,12,06,12,57,29.00
2015,12,06,12,58,25.70
2015,12,06,12,59,27.40
2015,12,06,13,00,29.00
2015,12,06,13,01,17.70
2015,12,06,13,02,22.50
2015,12,06,13,03,25.70
2015,12,06,13,04,33.80
2015,12,06,13,05,35.40
2015,12,06,13,06,35.40
2015,12,06,13,07,40.20
2015,12,06,13,08,30.60
2015,12,06,13,09,32.20
2015,12,06,13,10,33.80
2015,12,06,13,11,35.40
2015,12,06,13,12,38.60
2015,12,06,13,13,40.20
2015,12,06,13,14,27.40
2015,12,06,13,15,22.50
2015,12,06,13,16,27.40
2015,12,06,13,17,33.80
2015,12,06,13,18,25.70
2015,12,06,13,19,30.60
2015,12,06,13,20,37.00
2015,12,06,13,21,41.80
2015,12,06,13,22,43.50
2015,12,06,13,23,32.20
2015,12,06,13,24,30.60
2015,12,06,13,25,38.60
2015,12,06,13,26,35.40
2015,12,06,13,27,35.40
2015,12,06,13,28,25.70
2015,12,06,13,29,33.80
2015,12,06,13,30,37.00
2015,12,06,13,31,33.80
2015,12,06,13,32,27.40
2015,12,06,13,33,40.20
2015,12,06,13,34,51.50
2015,12,06,13,35,43.50
2015,12,06,13,36,43.50
2015,12,06,13,37,35.40
2015,12,06,13,38,41.80
2015,12,06,13,39,35.40
2015,12,06,13,40,27.40
2015,12,06,13,41,25.70
2015,12,06,13,42,40.20
2015,12,06,13,43,49.90
2015,12,06,13,44,46.70
2015,12,06,13,45,35.40
2015,12,06,13,46,30.60
2015,12,06,13,47,43.50
2015,12,06,13,48,40.20
2015,12,06,13,49,33.80
2015,12,06,13,50,38.60
2015,12,06,13,51,37.00
2015,12,06,13,52,27.40
2015,12,06,13,53,30.60
2015,12,06,13,54,25.70
2015,12,06,13,55,25.70
2015,12,06,13,56,22.50
2015,12,06,13,57,27.40
2015,12,06,13,58,27.40
2015,12,06,13,59,29.00
2015,12,06,14,00,27.40
2015,12,06,14,01,29.00
2015,12,06,14,02,16.10
2015,12,06,14,03,20.90
2015,12,06,14,04,22.50
2015,12,06,14,05,40.20
2015,12,06,14,06,40.20
2015,12,06,14,07,30.60
2015,12,06,14,08,33.80
2015,12,06,14,09,32.20
2015,12,06,14,10,22.50
2015,12,06,14,11,27.40
2015,12,06,14,12,29.00
2015,12,06,14,13,20.90
2015,12,06,14,14,16.10
2015,12,06,14,15,16.10
2015,12,06,14,16,24.20
2015,12,06,14,17,14.50
2015,12,06,14,18,22.50
2015,12,06,14,19,16.10
2015,12,06,14,20,19.30
2015,12,06,14,21,37.00
2015,12,06,14,22,37.00
2015,12,06,14,23,33.80
2015,12,06,14,24,22.50
2015,12,06,14,25,17.70
2015,12,06,14,26,16.10
2015,12,06,14,27,20.90
2015,12,06,14,28,24.20
2015,12,06,14,29,17.70
2015,12,06,14,30,19.30
2015,12,06,14,31,11.30
2015,12,06,14,32,6.40
2015,12,06,14,33,8.10
2015,12,06,14,34,22.50
2015,12,06,14,35,20.90
2015,12,06,14,36,14.50
2015,12,06,14,37,25.70
2015,12,06,14,38,16.10
2015,12,06,14,39,14.50
2015,12,06,14,40,14.50
2015,12,06,14,41,14.50
2015,12,06,14,42,16.10
2015,12,06,14,43,11.30
2015,12,06,14,44,16.10
2015,12,06,14,45,19.30
2015,12,06,14,46,19.30
2015,12,06,14,47,25.70
2015,12,06,14,48,19.30
2015,12,06,14,49,17.70
2015,12,06,14,50,12.90
2015,12,06,14,51,8.10
2015,12,06,14,52,9.60
2015,12,06,14,53,9.60
2015,12,06,14,54,32.20
2015,12,06,14,55,20.90
2015,12,06,14,56,25.70
2015,12,06,14,57,19.30
2015,12,06,14,58,19.30
2015,12,06,14,59,14.50
2015,12,06,15,00,27.40
2015,12,06,15,01,19.30
2015,12,06,15,02,35.40
2015,12,06,15,03,30.60
2015,12,06,15,04,27.40
2015,12,06,15,05,33.80
2015,12,06,15,06,30.60
2015,12,06,15,07,29.00
2015,12,06,15,08,27.40
2015,12,06,15,09,30.60
2015,12,06,15,10,37.00
2015,12,06,15,11,17.70
2015,12,06,15,12,25.70
2015,12,06,15,13,29.00
2015,12,06,15,14,27.40
2015,12,06,15,15,22.50
2015,12,06,15,16,24.20
2015,12,06,15,17,25.70
2015,12,06,15,18,24.20
2015,12,06,15,19,25.70
2015,12,06,15,20,27.40
2015,12,06,15,21,25.70
2015,12,06,15,22,22.50
2015,12,06,15,23,20.90
2015,12,06,15,24,25.70
2015,12,06,15,25,17.70
2015,12,06,15,26,16.10
2015,12,06,15,27,16.10
2015,12,06,15,28,22.50
2015,12,06,15,29,19.30
2015,12,06,15,30,20.90
2015,12,06,15,31,22.50
2015,12,06,15,32,22.50
2015,12,06,15,33,29.00
2015,12,06,15,34,29.00
2015,12,06,15,35,27.40
2015,12,06,15,36,22.50
2015,12,06,15,37,33.80
2015,12,06,15,38,29.00
2015,12,06,15,39,25.70
2015,12,06,15,40,24.20
2015,12,06,15,41,25.70
2015,12,06,15,42,32.20
2015,12,06,15,43,29.00
2015,12,06,15,44,24.20
2015,12,06,15,45,19.30
2015,12,06,15,46,20.90
2015,12,06,15,47,16.10
2015,12,06,15,48,16.10
2015,12,06,15,49,20.90
2015,12,06,15,50,14.50
2015,12,06,15,51,17.70
2015,12,06,15,52,16.10
2015,12,06,15,53,11.30
2015,12,06,15,54,9.60
2015,12,06,15,55,11.30
2015,12,06,15,56,9.60
2015,12,06,15,57,20.90
2015,12,06,15,58,37.00
2015,12,06,15,59,30.60
2015,12,06,16,00,20.90
2015,12,06,16,01,22.50
2015,12,06,16,02,32.20
2015,12,06,16,03,20.90
2015,12,06,16,04,25.70
2015,12,06,16,05,17.70
2015,12,06,16,06,37.00
2015,12,06,16,07,22.50
2015,12,06,16,08,24.20
2015,12,06,16,09,22.50
2015,12,06,16,10,30.60
2015,12,06,16,11,30.60
2015,12,06,16,12,20.90
2015,12,06,16,13,17.70
2015,12,06,16,14,17.70
2015,12,06,16,15,25.70
2015,12,06,16,16,16.10
2015,12,06,16,17,22.50
2015,12,06,16,18,33.80
2015,12,06,16,19,22.50
2015,12,06,16,20,22.50
2015,12,06,16,21,35.40
2015,12,06,16,22,27.40
2015,12,06,16,23,32.20
2015,12,06,16,24,19.30
2015,12,06,16,25,20.90
2015,12,06,16,26,30.60
2015,12,06,16,27,22.50
2015,12,06,16,28,16.10
2015,12,06,16,29,17.70
2015,12,06,16,30,19.30
2015,12,06,16,31,14.50
2015,12,06,16,32,27.40
2015,12,06,16,33,24.20
2015,12,06,16,34,19.30
2015,12,06,16,35,17.70
2015,12,06,16,36,14.50
2015,12,06,16,37,12.90
2015,12,06,16,38,20.90
2015,12,06,16,39,8.10
2015,12,06,16,40,19.30
2015,12,06,16,41,22.50
2015,12,06,16,42,27.40
2015,12,06,16,43,19.30
2015,12,06,16,44,11.30
2015,12,06,16,45,8.10
2015,12,06,16,46,6.40
2015,12,06,16,47,3.20
2015,12,06,16,48,4.80
2015,12,06,16,49,4.80
2015,12,06,16,50,3.20
2015,12,06,16,51,4.80
2015,12,06,16,52,6.40
2015,12,06,16,53,4.80
2015,12,06,16,54,1.60
2015,12,06,16,55,3.20
2015,12,06,16,56,6.40
2015,12,06,16,57,6.40
2015,12,06,16,58,6.40
2015,12,06,16,59,6.40
2015,12,06,17,00,6.40
2015,12,06,17,01,3.20
2015,12,06,17,02,6.40
2015,12,06,17,03,6.40
2015,12,06,17,04,9.60
2015,12,06,17,05,6.40
2015,12,06,17,06,1.60
2015,12,06,17,07,3.20
2015,12,06,17,08,1.60
2015,12,06,17,09,4.80
2015,12,06,17,10,4.80
2015,12,06,17,12,1.60
2015,12,06,17,13,1.60
2015,12,06,17,15,1.60
2015,12,06,17,16,3.20
2015,12,06,17,17,4.80
2015,12,06,17,18,3.20
2015,12,06,17,19,1.60
2015,12,06,17,20,4.80
2015,12,06,17,21,3.20
2015,12,06,17,22,3.20
2015,12,06,17,23,4.80
2015,12,06,17,24,4.80
2015,12,06,17,25,1.60
2015,12,06,17,26,1.60
2015,12,06,17,27,3.20
2015,12,06,17,28,4.80
2015,12,06,17,29,6.40
2015,12,06,17,30,8.10
2015,12,06,17,31,4.80
2015,12,06,17,32,4.80
2015,12,06,17,33,3.20
2015,12,06,17,34,4.80
2015,12,06,17,35,4.80
2015,12,06,17,36,1.60
2015,12,06,17,37,3.20
2015,12,06,17,38,4.80
2015,12,06,17,39,8.10
2015,12,06,17,40,3.20
2015,12,06,17,41,3.20
2015,12,06,17,42,3.20
2015,12,06,17,43,1.60
2015,12,06,17,44,3.20
2015,12,06,17,45,3.20
2015,12,06,17,46,11.30
2015,12,06,17,47,9.60
2015,12,06,17,48,6.40
2015,12,06,17,49,4.80
2015,12,06,17,50,6.40
2015,12,06,17,51,12.90
2015,12,06,17,52,20.90
2015,12,06,17,53,25.70
2015,12,06,17,54,19.30
2015,12,06,17,55,11.30
2015,12,06,17,56,6.40
2015,12,06,17,57,6.40
2015,12,06,17,58,11.30
2015,12,06,17,59,12.90
2015,12,06,18,00,1.60
2015,12,06,18,01,3.20
2015,12,06,18,02,16.10
2015,12,06,18,03,16.10
2015,12,06,18,04,20.90
2015,12,06,18,05,16.10
2015,12,06,18,06,14.50
2015,12,06,18,07,11.30
2015,12,06,18,08,11.30
2015,12,06,18,09,12.90
2015,12,06,18,10,12.90
2015,12,06,18,11,19.30
2015,12,06,18,12,20.90
2015,12,06,18,13,12.90
2015,12,06,18,14,19.30
2015,12,06,18,15,16.10
2015,12,06,18,16,24.20
2015,12,06,18,17,19.30
2015,12,06,18,18,20.90
2015,12,06,18,19,25.70
2015,12,06,18,20,37.00
2015,12,06,18,21,27.40
2015,12,06,18,22,32.20
2015,12,06,18,23,43.50
2015,12,06,18,24,43.50
2015,12,06,18,25,45.10
2015,12,06,18,26,25.70
2015,12,06,18,27,27.40
2015,12,06,18,28,33.80
2015,12,06,18,29,29.00
2015,12,06,18,30,33.80
2015,12,06,18,31,37.00
2015,12,06,18,32,43.50
2015,12,06,18,33,48.30
2015,12,06,18,34,56.30
2015,12,06,18,35,43.50
2015,12,06,18,36,43.50
2015,12,06,18,37,51.50
2015,12,06,18,38,59.50
2015,12,06,18,39,43.50
2015,12,06,18,40,57.90
2015,12,06,18,41,45.10
2015,12,06,18,42,57.90
2015,12,06,18,43,59.50
2015,12,06,18,44,62.70
2015,12,06,18,45,54.70
2015,12,06,18,46,49.90
2015,12,06,18,47,45.10
2015,12,06,18,48,33.80
2015,12,06,18,49,30.60
2015,12,06,18,50,32.20
2015,12,06,18,51,48.30
2015,12,06,18,52,46.70
2015,12,06,18,53,51.50
2015,12,06,18,54,41.80
2015,12,06,18,55,40.20
2015,12,06,18,56,46.70
2015,12,06,18,57,40.20
2015,12,06,18,58,30.60
2015,12,06,18,59,32.20
2015,12,06,19,00,38.60
2015,12,06,19,01,33.80
2015,12,06,19,02,38.60
2015,12,06,19,03,41.80
2015,12,06,19,04,30.60
2015,12,06,19,05,30.60
2015,12,06,19,06,35.40
2015,12,06,19,07,27.40
2015,12,06,19,08,32.20
2015,12,06,19,09,32.20
2015,12,06,19,10,38.60
2015,12,06,19,11,35.40